Terminal Aerodrome Forecast
Issued by NWS Pueblo, CO

Home | Current Version | Previous Version | Text Only | Print | Product List | Glossary On
Versions: 1 2 3 4 5 6 7 8 9 10 11 12 13 14 15 16 17 18 19 20 21 22 23 24 25 26 27 28 29 30 31 32 33 34 35 36 37 38 39 40 41 42 43 44 45 46 47 48 49 50
997
FTUS45 KPUB 210150 AAB
TAFCOS
TAF AMD
KCOS 210150Z 2102/2124 35010KT P6SM VCTS SCT090CB SCT140 BKN200
     FM210700 33007KT P6SM SCT150
     FM211200 VRB06KT P6SM FEW200
     FM211900 13009G19KT P6SM FEW080 SCT130=

USA.gov is the U.S. government's official web portal to all federal, state and local government web resources and services.